Year,Month,Day,Hour,Minute,Value (Times are PST for insolation in W/m^2)
2016,08,03,08,57,297.00
2016,08,03,08,58,300.10
2016,08,03,08,59,326.60
2016,08,03,09,00,303.60
2016,08,03,09,01,288.00
2016,08,03,09,02,281.50
2016,08,03,09,03,281.60
2016,08,03,09,04,277.30
2016,08,03,09,05,277.90
2016,08,03,09,06,284.00
2016,08,03,09,07,295.60
2016,08,03,09,08,306.60
2016,08,03,09,09,318.90
2016,08,03,09,10,320.70
2016,08,03,09,11,318.50
2016,08,03,09,12,318.70
2016,08,03,09,13,314.40
2016,08,03,09,14,329.00
2016,08,03,09,15,302.40
2016,08,03,09,16,296.70
2016,08,03,09,17,289.20
2016,08,03,09,18,289.90
2016,08,03,09,19,303.30
2016,08,03,09,20,308.20
2016,08,03,09,21,313.70
2016,08,03,09,22,320.40
2016,08,03,09,23,326.00
2016,08,03,09,24,337.70
2016,08,03,09,25,309.50
2016,08,03,09,26,289.40
2016,08,03,09,27,283.00
2016,08,03,09,28,283.80
2016,08,03,09,29,284.10
2016,08,03,09,30,279.70
2016,08,03,09,31,271.50
2016,08,03,09,32,262.30
2016,08,03,09,33,254.00
2016,08,03,09,34,246.70
2016,08,03,09,35,242.00
2016,08,03,09,36,239.60
2016,08,03,09,37,239.00
2016,08,03,09,38,237.40
2016,08,03,09,39,236.10
2016,08,03,09,40,236.00
2016,08,03,09,41,234.20
2016,08,03,09,42,234.00
2016,08,03,09,43,236.00
2016,08,03,09,44,236.00
2016,08,03,09,45,236.10
2016,08,03,09,46,237.00
2016,08,03,09,47,237.40
2016,08,03,09,48,239.00
2016,08,03,09,49,239.00
2016,08,03,09,50,239.00
2016,08,03,09,51,239.80
2016,08,03,09,52,242.30
2016,08,03,09,53,245.00
2016,08,03,09,54,248.10
2016,08,03,09,55,251.60
2016,08,03,09,56,254.10
2016,08,03,09,57,256.90
2016,08,03,09,58,259.30
2016,08,03,09,59,262.90
2016,08,03,10,00,264.80
2016,08,03,10,01,266.60
2016,08,03,10,02,267.00
2016,08,03,10,03,267.00
2016,08,03,10,04,267.00
2016,08,03,10,05,264.10
2016,08,03,10,06,264.10
2016,08,03,10,07,267.40
2016,08,03,10,08,271.40
2016,08,03,10,09,274.30
2016,08,03,10,10,275.60
2016,08,03,10,11,273.30
2016,08,03,10,12,269.90
2016,08,03,10,13,266.30
2016,08,03,10,14,263.90
2016,08,03,10,15,260.30
2016,08,03,10,16,257.50
2016,08,03,10,17,254.90
2016,08,03,10,18,251.40
2016,08,03,10,19,248.90
2016,08,03,10,20,248.00
2016,08,03,10,21,245.30
2016,08,03,10,22,243.30
2016,08,03,10,23,240.00
2016,08,03,10,24,236.60
2016,08,03,10,25,234.30
2016,08,03,10,26,232.20
2016,08,03,10,27,233.80
2016,08,03,10,28,234.00
2016,08,03,10,29,233.90
2016,08,03,10,30,232.00
2016,08,03,10,31,231.70
2016,08,03,10,32,229.40
2016,08,03,10,33,225.80
2016,08,03,10,34,219.80
2016,08,03,10,35,214.60
2016,08,03,10,36,210.30
2016,08,03,10,37,207.90
2016,08,03,10,38,206.00
2016,08,03,10,39,205.00
2016,08,03,10,40,203.00
2016,08,03,10,41,200.90
2016,08,03,10,42,199.40
2016,08,03,10,43,197.80
2016,08,03,10,44,197.00
2016,08,03,10,45,198.40
2016,08,03,10,46,199.00
2016,08,03,10,47,197.40
2016,08,03,10,48,195.30
2016,08,03,10,49,195.00
2016,08,03,10,50,195.00
2016,08,03,10,51,196.90
2016,08,03,10,52,199.00
2016,08,03,10,53,200.40
2016,08,03,10,54,205.00
2016,08,03,10,55,212.70
2016,08,03,10,56,222.40
2016,08,03,10,57,234.90
2016,08,03,10,58,244.00
2016,08,03,10,59,251.70
2016,08,03,11,00,270.40
2016,08,03,11,01,277.30
2016,08,03,11,02,278.50
2016,08,03,11,03,276.00
2016,08,03,11,04,272.90
2016,08,03,11,05,269.00
2016,08,03,11,06,261.40
2016,08,03,11,07,253.30
2016,08,03,11,08,247.40
2016,08,03,11,09,243.70
2016,08,03,11,10,243.00
2016,08,03,11,11,243.90
2016,08,03,11,12,247.40
2016,08,03,11,13,256.10
2016,08,03,11,14,263.70
2016,08,03,11,15,261.70
2016,08,03,11,16,254.30
2016,08,03,11,17,247.70
2016,08,03,11,18,246.00
2016,08,03,11,19,246.00
2016,08,03,11,20,246.00
2016,08,03,11,21,246.60
2016,08,03,11,22,248.00
2016,08,03,11,23,249.90
2016,08,03,11,24,255.10
2016,08,03,11,25,259.90
2016,08,03,11,26,262.00
2016,08,03,11,27,259.80
2016,08,03,11,28,257.40
2016,08,03,11,29,255.80
2016,08,03,11,30,257.00
2016,08,03,11,31,263.00
2016,08,03,11,32,273.40
2016,08,03,11,33,285.60
2016,08,03,11,34,299.50
2016,08,03,11,35,308.30
2016,08,03,11,36,310.80
2016,08,03,11,37,306.20
2016,08,03,11,38,291.70
2016,08,03,11,39,284.40
2016,08,03,11,40,279.00
2016,08,03,11,41,278.80
2016,08,03,11,42,277.60
2016,08,03,11,43,276.70
2016,08,03,11,44,281.60
2016,08,03,11,45,292.30
2016,08,03,11,46,306.30
2016,08,03,11,47,321.00
2016,08,03,11,48,329.00
2016,08,03,11,49,344.70
2016,08,03,11,50,361.80
2016,08,03,11,51,368.00
2016,08,03,11,52,377.20
2016,08,03,11,53,393.00
2016,08,03,11,54,412.60
2016,08,03,11,55,412.70
2016,08,03,11,56,408.60
2016,08,03,11,57,406.30
2016,08,03,11,58,401.70
2016,08,03,11,59,397.40
2016,08,03,12,00,398.90
2016,08,03,12,01,406.50
2016,08,03,12,02,417.70
2016,08,03,12,03,425.40
2016,08,03,12,04,437.40
2016,08,03,12,05,451.20
2016,08,03,12,06,440.10
2016,08,03,12,07,411.00
2016,08,03,12,08,398.00
2016,08,03,12,09,388.60
2016,08,03,12,10,377.90
2016,08,03,12,11,361.00
2016,08,03,12,12,338.00
2016,08,03,12,13,321.00
2016,08,03,12,14,313.10
2016,08,03,12,15,309.80
2016,08,03,12,16,309.00
2016,08,03,12,17,311.90
2016,08,03,12,18,314.50
2016,08,03,12,19,317.40
2016,08,03,12,20,319.70
2016,08,03,12,21,321.80
2016,08,03,12,22,322.90
2016,08,03,12,23,331.60
2016,08,03,12,24,345.70
2016,08,03,12,25,359.80
2016,08,03,12,26,367.30
2016,08,03,12,27,368.00
2016,08,03,12,28,363.00
2016,08,03,12,29,357.60
2016,08,03,12,30,350.70
2016,08,03,12,31,343.00
2016,08,03,12,32,338.60
2016,08,03,12,33,338.00
2016,08,03,12,34,338.00
2016,08,03,12,35,338.50
2016,08,03,12,36,342.30
2016,08,03,12,37,345.60
2016,08,03,12,38,345.40
2016,08,03,12,39,339.00
2016,08,03,12,40,331.70
2016,08,03,12,41,326.20
2016,08,03,12,42,322.60
2016,08,03,12,43,322.00
2016,08,03,12,44,320.30
2016,08,03,12,45,318.20
2016,08,03,12,46,316.10
2016,08,03,12,47,315.10
2016,08,03,12,48,318.20
2016,08,03,12,49,320.00
2016,08,03,12,50,319.00
2016,08,03,12,51,313.80
2016,08,03,12,52,307.30
2016,08,03,12,53,299.70
2016,08,03,12,54,292.70
2016,08,03,12,55,290.00
2016,08,03,12,56,291.70
2016,08,03,12,57,296.40
2016,08,03,12,58,306.30
2016,08,03,12,59,318.00
2016,08,03,13,00,326.00
2016,08,03,13,01,334.60
2016,08,03,13,02,344.70
2016,08,03,13,03,354.40
2016,08,03,13,04,366.10
2016,08,03,13,05,382.00
2016,08,03,13,06,389.30
2016,08,03,13,07,406.20
2016,08,03,13,08,409.80
2016,08,03,13,09,451.90
2016,08,03,13,10,420.30
2016,08,03,13,11,462.00
2016,08,03,13,12,421.70
2016,08,03,13,13,404.60
2016,08,03,13,14,385.80
2016,08,03,13,15,367.80
2016,08,03,13,16,363.40
2016,08,03,13,17,362.70
2016,08,03,13,18,365.90
2016,08,03,13,19,369.90
2016,08,03,13,20,366.70
2016,08,03,13,21,357.30
2016,08,03,13,22,347.50
2016,08,03,13,23,339.00
2016,08,03,13,24,336.00
2016,08,03,13,25,336.00
2016,08,03,13,26,337.40
2016,08,03,13,27,338.00
2016,08,03,13,28,327.50
2016,08,03,13,29,313.10
2016,08,03,13,30,300.70
2016,08,03,13,31,286.30
2016,08,03,13,32,276.40
2016,08,03,13,33,273.90
2016,08,03,13,34,270.60
2016,08,03,13,35,266.70
2016,08,03,13,36,265.00
2016,08,03,13,37,265.40
2016,08,03,13,38,269.10
2016,08,03,13,39,278.00
2016,08,03,13,40,286.00
2016,08,03,13,41,292.80
2016,08,03,13,42,294.40
2016,08,03,13,43,293.60
2016,08,03,13,44,292.00
2016,08,03,13,45,294.60
2016,08,03,13,46,301.00
2016,08,03,13,47,309.60
2016,08,03,13,48,310.30
2016,08,03,13,49,310.40
2016,08,03,13,50,307.20
2016,08,03,13,51,300.30
2016,08,03,13,52,297.30
2016,08,03,13,53,298.70
2016,08,03,13,54,300.80
2016,08,03,13,55,301.00
2016,08,03,13,56,302.00
2016,08,03,13,57,302.20
2016,08,03,13,58,304.30
2016,08,03,13,59,307.30
2016,08,03,14,00,314.80
2016,08,03,14,01,323.90
2016,08,03,14,02,332.60
2016,08,03,14,03,340.30
2016,08,03,14,04,341.50
2016,08,03,14,05,338.60
2016,08,03,14,06,339.40
2016,08,03,14,07,340.00
2016,08,03,14,08,339.00
2016,08,03,14,09,341.30
2016,08,03,14,10,348.60
2016,08,03,14,11,358.70
2016,08,03,14,12,368.40
2016,08,03,14,13,373.30
2016,08,03,14,14,374.00
2016,08,03,14,15,374.00
2016,08,03,14,16,394.70
2016,08,03,14,17,411.50
2016,08,03,14,18,413.00
2016,08,03,14,19,409.80
2016,08,03,14,20,406.00
2016,08,03,14,21,406.60
2016,08,03,14,22,410.60
2016,08,03,14,23,413.50
2016,08,03,14,24,415.50
2016,08,03,14,25,415.30
2016,08,03,14,26,408.30
2016,08,03,14,27,401.50
2016,08,03,14,28,402.90
2016,08,03,14,29,416.10
2016,08,03,14,30,428.70
2016,08,03,14,31,433.10
2016,08,03,14,32,428.30
2016,08,03,14,33,421.50
2016,08,03,14,34,434.00
2016,08,03,14,35,478.90
2016,08,03,14,36,559.50
2016,08,03,14,37,559.80
2016,08,03,14,38,561.80
2016,08,03,14,39,532.10
2016,08,03,14,40,528.80
2016,08,03,14,41,546.10
2016,08,03,14,42,547.00
2016,08,03,14,43,553.90
2016,08,03,14,44,605.90
2016,08,03,14,45,523.40
2016,08,03,14,46,495.70
2016,08,03,14,47,461.80
2016,08,03,14,48,427.40
2016,08,03,14,49,397.00
2016,08,03,14,50,367.10
2016,08,03,14,51,369.10
2016,08,03,14,52,360.30
2016,08,03,14,53,328.90
2016,08,03,14,54,304.50
2016,08,03,14,55,284.10
2016,08,03,14,56,274.80
2016,08,03,14,57,272.70
2016,08,03,14,58,274.90
2016,08,03,14,59,302.70
2016,08,03,15,00,311.00
2016,08,03,15,01,311.00
2016,08,03,15,02,667.40
2016,08,03,15,03,707.00
2016,08,03,15,04,707.00
2016,08,03,15,05,443.30
2016,08,03,15,06,390.00
2016,08,03,15,07,390.00
2016,08,03,15,08,390.00
2016,08,03,15,09,390.00
2016,08,03,15,10,494.20
2016,08,03,15,11,797.30
2016,08,03,15,12,772.70
2016,08,03,15,13,765.90
2016,08,03,15,14,760.30
2016,08,03,15,15,767.90
2016,08,03,15,16,771.60
2016,08,03,15,17,778.00
2016,08,03,15,18,795.10
2016,08,03,15,19,792.00
2016,08,03,15,20,784.00
2016,08,03,15,21,687.60
2016,08,03,15,22,649.00
2016,08,03,15,23,649.00
2016,08,03,15,24,731.30
2016,08,03,15,25,736.00
2016,08,03,15,26,728.70
2016,08,03,15,27,721.30
2016,08,03,15,28,721.00
2016,08,03,15,29,721.00
2016,08,03,15,30,720.40
2016,08,03,15,31,717.40
2016,08,03,15,32,719.70
2016,08,03,15,33,722.00
2016,08,03,15,34,722.00
2016,08,03,15,35,721.00
2016,08,03,15,36,718.20
2016,08,03,15,37,716.10
2016,08,03,15,38,716.90
2016,08,03,15,39,720.00
2016,08,03,15,40,722.60
2016,08,03,15,41,726.40
2016,08,03,15,42,729.90
2016,08,03,15,43,727.70
2016,08,03,15,44,719.60
2016,08,03,15,45,715.50
2016,08,03,15,46,719.90
2016,08,03,15,47,715.90
2016,08,03,15,48,708.70
2016,08,03,15,49,701.70
2016,08,03,15,50,684.80
2016,08,03,15,51,679.00
2016,08,03,15,52,680.40
2016,08,03,15,53,684.40
2016,08,03,15,54,686.80
2016,08,03,15,55,684.80
2016,08,03,15,56,679.80
2016,08,03,15,57,679.30
2016,08,03,15,58,680.00
2016,08,03,15,59,678.10
2016,08,03,16,00,673.30
2016,08,03,16,01,671.00
2016,08,03,16,02,669.40
2016,08,03,16,03,665.80
2016,08,03,16,04,662.30
2016,08,03,16,05,659.80
2016,08,03,16,06,655.70
2016,08,03,16,07,652.60
2016,08,03,16,08,648.20
2016,08,03,16,09,643.80
2016,08,03,16,10,638.70
2016,08,03,16,11,638.00
2016,08,03,16,12,636.20
2016,08,03,16,13,637.90
2016,08,03,16,14,636.00
2016,08,03,16,15,635.70
2016,08,03,16,16,633.00
2016,08,03,16,17,632.20
2016,08,03,16,18,628.80
2016,08,03,16,19,628.00
2016,08,03,16,20,627.40
2016,08,03,16,21,625.30
2016,08,03,16,22,623.20
2016,08,03,16,23,621.60
2016,08,03,16,24,619.10
2016,08,03,16,25,616.00
2016,08,03,16,26,613.90
2016,08,03,16,27,612.40
2016,08,03,16,28,609.50
2016,08,03,16,29,606.70
2016,08,03,16,30,605.30
2016,08,03,16,31,600.40
2016,08,03,16,32,598.20
2016,08,03,16,33,598.00
2016,08,03,16,34,598.90
2016,08,03,16,35,596.30
2016,08,03,16,36,591.20
2016,08,03,16,37,588.80
2016,08,03,16,38,584.00
2016,08,03,16,39,583.40
2016,08,03,16,40,580.00
2016,08,03,16,41,579.30
2016,08,03,16,42,576.50
2016,08,03,16,43,573.90
2016,08,03,16,44,570.70
2016,08,03,16,45,567.70
2016,08,03,16,46,563.60
2016,08,03,16,47,561.10
2016,08,03,16,48,556.90
2016,08,03,16,49,552.20
2016,08,03,16,50,548.30
2016,08,03,16,51,544.50
2016,08,03,16,52,541.00
2016,08,03,16,53,538.60
2016,08,03,16,54,536.50
2016,08,03,16,55,536.00
2016,08,03,16,56,533.50
2016,08,03,16,57,531.30
2016,08,03,16,58,527.40
2016,08,03,16,59,522.20
2016,08,03,17,00,520.00
2016,08,03,17,01,519.00
2016,08,03,17,02,519.00
2016,08,03,17,03,519.20
2016,08,03,17,04,519.80
2016,08,03,17,05,518.00
2016,08,03,17,06,514.40
2016,08,03,17,07,512.00
2016,08,03,17,08,509.20
2016,08,03,17,09,508.00
2016,08,03,17,10,507.00
2016,08,03,17,11,505.00
2016,08,03,17,12,504.00
2016,08,03,17,13,503.40
2016,08,03,17,14,499.30
2016,08,03,17,15,495.00
2016,08,03,17,16,492.60
2016,08,03,17,17,489.70
2016,08,03,17,18,485.80
2016,08,03,17,19,483.30
2016,08,03,17,20,482.10
2016,08,03,17,21,480.20
2016,08,03,17,22,476.20
2016,08,03,17,23,474.90
2016,08,03,17,24,472.60
2016,08,03,17,25,468.90
2016,08,03,17,26,466.90
2016,08,03,17,27,462.00
2016,08,03,17,28,461.30
2016,08,03,17,29,459.00
2016,08,03,17,30,457.30
2016,08,03,17,31,452.50
2016,08,03,17,32,449.10
2016,08,03,17,33,446.60
2016,08,03,17,34,444.00
2016,08,03,17,35,440.80
2016,08,03,17,36,438.40
2016,08,03,17,37,435.50
2016,08,03,17,38,432.00
2016,08,03,17,39,429.60
2016,08,03,17,40,427.50
2016,08,03,17,41,425.40
2016,08,03,17,42,422.40
2016,08,03,17,43,418.40
2016,08,03,17,44,417.10
2016,08,03,17,45,415.10
2016,08,03,17,46,414.80
2016,08,03,17,47,410.70
2016,08,03,17,48,407.40
2016,08,03,17,49,403.80
2016,08,03,17,50,402.20
2016,08,03,17,51,398.50
2016,08,03,17,52,396.10
2016,08,03,17,53,392.70
2016,08,03,17,54,389.20
2016,08,03,17,55,386.70
2016,08,03,17,56,384.10
2016,08,03,17,57,382.00
2016,08,03,17,58,379.40
2016,08,03,17,59,376.80
2016,08,03,18,00,374.80
2016,08,03,18,01,373.30
2016,08,03,18,02,371.60
2016,08,03,18,03,368.00
2016,08,03,18,04,366.20
2016,08,03,18,05,362.60
2016,08,03,18,06,359.40
2016,08,03,18,07,357.20
2016,08,03,18,08,353.20
2016,08,03,18,09,349.90
2016,08,03,18,10,348.00
2016,08,03,18,11,347.60
2016,08,03,18,12,344.60
2016,08,03,18,13,342.20
2016,08,03,18,14,338.80
2016,08,03,18,15,337.40
2016,08,03,18,16,335.30
2016,08,03,18,17,332.50
2016,08,03,18,18,328.70
2016,08,03,18,19,327.00
2016,08,03,18,20,324.40
2016,08,03,18,21,320.90
2016,08,03,18,22,317.70
2016,08,03,18,23,315.40
2016,08,03,18,24,313.70
2016,08,03,18,25,310.10
2016,08,03,18,26,306.70
2016,08,03,18,27,304.40
2016,08,03,18,28,302.30
2016,08,03,18,29,301.10
2016,08,03,18,30,297.40
2016,08,03,18,31,294.10
2016,08,03,18,32,291.80
2016,08,03,18,33,287.70
2016,08,03,18,34,284.40
2016,08,03,18,35,280.60
2016,08,03,18,36,278.80
2016,08,03,18,37,277.00
2016,08,03,18,38,273.40
2016,08,03,18,39,271.00
2016,08,03,18,40,268.20
2016,08,03,18,41,265.70
2016,08,03,18,42,263.00
2016,08,03,18,43,261.00
2016,08,03,18,44,258.30
2016,08,03,18,45,254.60
2016,08,03,18,46,251.10
2016,08,03,18,47,248.70
2016,08,03,18,48,246.60
2016,08,03,18,49,243.70
2016,08,03,18,50,239.80
2016,08,03,18,51,237.30
2016,08,03,18,52,234.30
2016,08,03,18,53,230.40
2016,08,03,18,54,227.10
2016,08,03,18,55,222.90
2016,08,03,18,56,220.70
2016,08,03,18,57,217.40
2016,08,03,18,58,213.40
2016,08,03,18,59,210.00
2016,08,03,19,00,206.20
2016,08,03,19,01,203.40
2016,08,03,19,02,201.00
2016,08,03,19,03,199.00
2016,08,03,19,04,199.00
2016,08,03,19,05,199.00
2016,08,03,19,06,199.00
2016,08,03,19,07,199.00
2016,08,03,19,08,199.00
2016,08,03,19,09,199.00
2016,08,03,19,10,199.00
2016,08,03,19,11,199.00
2016,08,03,19,12,199.00
